GW1753 Weather Reports


Display with metric or nautical units.
time (UTC)temp
F
wind
direction
speed
MPH
gust
MPH
rain 1hr
in
rain 24hr
in
rain mn
in
humidity
%
barometer
mb
20260901232918 84 127 4.0 6.0 0.00 0.00 0.00 23 1011.7
20260901232418 84 80 2.0 6.0 0.00 0.00 0.00 23 1012.1
20260901231913 84 208 4.0 6.0 0.00 0.00 0.00 23 1012.0
20260901231409 84 190 3.0 6.0 0.00 0.00 0.00 23 1011.8
20260901230906 84 140 4.0 7.0 0.00 0.00 0.00 24 1012.1
20260901230405 85 166 7.0 10.0 0.00 0.00 0.00 23 1012.2
20260901225901 85 177 6.0 9.0 0.00 0.00 0.00 23 1012.0
20260901225400 84 219 1.0 6.0 0.00 0.00 0.00 23 1012.1
20260901224855 84 180 4.0 10.0 0.00 0.00 0.00 24 1012.2
20260901224352 84 74 3.0 6.0 0.00 0.00 0.00 24 1012.3
20260901223848 84 198 7.0 14.0 0.00 0.00 0.00 24 1012.2
20260901223343 84 87 6.0 7.0 0.00 0.00 0.00 25 1012.2
20260901222838 83 122 6.0 7.0 0.00 0.00 0.00 25 1012.6
20260901222335 84 122 7.0 9.0 0.00 0.00 0.00 25 1012.6
20260901221830 84 142 9.0 11.0 0.00 0.00 0.00 25 1012.6
20260901221326 84 86 7.0 14.0 0.00 0.00 0.00 25 1012.6
20260901220825 85 145 6.0 8.0 0.00 0.00 0.00 25 1012.4
20260901220324 86 134 8.0 10.0 0.00 0.00 0.00 25 1012.8
20260901215823 85 124 7.0 11.0 0.00 0.00 0.00 25 1013.0
20260901215323 84 104 4.0 8.0 0.00 0.00 0.00 25 1012.8
20260901214821 84 131 4.0 6.0 0.00 0.00 0.00 25 1012.9
20260901214320 82 166 5.0 7.0 0.00 0.00 0.00 26 1012.9
20260901213815 82 194 6.0 8.0 0.00 0.00 0.00 25 1013.0
20260901213315 82 151 4.0 8.0 0.00 0.00 0.00 26 1013.1
20260901212810 82 162 4.0 8.0 0.00 0.00 0.00 26 1013.1
20260901212306 82 151 5.0 8.0 0.00 0.00 0.00 26 1013.1
20260901211801 83 114 6.0 9.0 0.00 0.00 0.00 26 1013.1
20260901211257 84 122 8.0 10.0 0.00 0.00 0.00 26 1013.1
20260901210753 86 203 7.0 9.0 0.00 0.00 0.00 24 1013.3
20260901210248 85 176 3.0 7.0 0.00 0.00 0.00 26 1013.1
20260901205744 83 217 7.0 9.0 0.00 0.00 0.00 25 1013.3
20260901205244 84 154 7.0 9.0 0.00 0.00 0.00 26 1013.4
20260901204739 85 217 6.0 8.0 0.00 0.00 0.00 25 1013.7
20260901204235 83 157 3.0 8.0 0.00 0.00 0.00 26 1013.7
20260901203730 81 226 3.0 4.0 0.00 0.00 0.00 26 1013.5
20260901203230 81 202 1.0 7.0 0.00 0.00 0.00 27 1013.7
20260901202729 81 185 5.0 8.0 0.00 0.00 0.00 27 1013.8
20260901202225 81 204 6.0 9.0 0.00 0.00 0.00 26 1013.8
20260901201721 82 201 6.0 10.0 0.00 0.00 0.00 26 1014.0
20260901201220 83 98 5.0 9.0 0.00 0.00 0.00 26 1013.9
20260901200714 82 213 3.0 8.0 0.00 0.00 0.00 26 1014.0
20260901200209 81 216 4.0 7.0 0.00 0.00 0.00 27 1014.2
20260901195707 81 205 6.0 8.0 0.00 0.00 0.00 26 1014.2
20260901195201 80 149 4.0 13.0 0.00 0.00 0.00 28 1014.2
20260901194658 80 134 5.0 11.0 0.00 0.00 0.00 27 1014.4
20260901194152 80 100 5.0 9.0 0.00 0.00 0.00 28 1014.4
20260901193643 80 194 7.0 9.0 0.00 0.00 0.00 28 1014.3
20260901193142 80 118 7.0 9.0 0.00 0.00 0.00 29 1014.3
20260901192637 79 173 5.0 11.0 0.00 0.00 0.00 30 1014.3
20260901192132 79 132 8.0 11.0 0.00 0.00 0.00 30 1014.4
20260901191628 78 165 6.0 8.0 0.00 0.00 0.00 31 1014.5
20260901191124 77 117 6.0 10.0 0.00 0.00 0.00 31 1014.7
20260901190620 77 171 7.0 9.0 0.00 0.00 0.00 32 1014.6
20260901190119 77 168 5.0 10.0 0.00 0.00 0.00 31 1015.1
20260901185618 78 139 7.0 10.0 0.00 0.00 0.00 31 1014.7
20260901185116 78 121 7.0 9.0 0.00 0.00 0.00 31 1014.9
20260901184612 78 152 5.0 10.0 0.00 0.00 0.00 31 1014.9
20260901184108 78 133 6.0 7.0 0.00 0.00 0.00 32 1014.9
20260901183608 77 115 8.0 9.0 0.00 0.00 0.00 32 1015.0
20260901183103 76 167 7.0 11.0 0.00 0.00 0.00 31 1015.1
20260901182559 77 172 8.0 11.0 0.00 0.00 0.00 31 1015.3
20260901182059 77 105 8.0 10.0 0.00 0.00 0.00 30 1015.3
20260901181559 76 131 5.0 11.0 0.00 0.00 0.00 33 1015.4
20260901181058 75 109 5.0 11.0 0.00 0.00 0.00 34 1015.4
20260901180557 75 116 5.0 13.0 0.00 0.00 0.00 34 1015.5
20260901180052 74 124 6.0 11.0 0.00 0.00 0.00 34 1015.4
20260901175551 74 142 7.0 9.0 0.00 0.00 0.00 35 1015.4
20260901175051 74 95 5.0 11.0 0.00 0.00 0.00 36 1015.6
20260901174547 73 117 7.0 13.0 0.00 0.00 0.00 36 1015.7
20260901174043 74 100 6.0 13.0 0.00 0.00 0.00 36 1015.8
20260901173538 73 118 6.0 11.0 0.00 0.00 0.00 37 1015.7
20260901173034 72 100 6.0 11.0 0.00 0.00 0.00 37 1015.7
20260901172529 72 113 7.0 9.0 0.00 0.00 0.00 38 1015.5
20260901172027 71 79 4.0 9.0 0.00 0.00 0.00 38 1015.8
20260901171526 71 109 9.0 11.0 0.00 0.00 0.00 37 1015.7
20260901171025 71 104 10.0 11.0 0.00 0.00 0.00 38 1015.7
20260901170526 71 118 9.0 11.0 0.00 0.00 0.00 38 1015.7
20260901170021 71 119 12.0 13.0 0.00 0.00 0.00 39 1015.9
20260901165520 70 98 5.0 10.0 0.00 0.00 0.00 40 1015.8
20260901165016 70 132 9.0 11.0 0.00 0.00 0.00 40 1016.1
20260901164511 70 73 6.0 11.0 0.00 0.00 0.00 40 1015.9
20260901164007 71 88 8.0 11.0 0.00 0.00 0.00 39 1016.2
20260901163502 70 128 7.0 14.0 0.00 0.00 0.00 40 1016.1
20260901163000 69 122 9.0 14.0 0.00 0.00 0.00 40 1016.1
20260901162456 69 92 6.0 13.0 0.00 0.00 0.00 41 1016.1
20260901161955 69 89 6.0 13.0 0.00 0.00 0.00 41 1016.1
20260901161454 69 113 6.0 8.0 0.00 0.00 0.00 41 1016.1
20260901160949 68 127 10.0 11.0 0.00 0.00 0.00 42 1016.3
20260901160445 67 121 5.0 11.0 0.00 0.00 0.00 44 1016.1
20260901155944 67 125 11.0 13.0 0.00 0.00 0.00 43 1016.4
20260901155444 67 106 8.0 13.0 0.00 0.00 0.00 44 1016.2
20260901154941 66 122 10.0 11.0 0.00 0.00 0.00 44 1016.2
20260901154440 66 134 9.0 10.0 0.00 0.00 0.00 44 1015.9
20260901153935 66 122 9.0 10.0 0.00 0.00 0.00 45 1016.3
20260901153430 66 121 11.0 15.0 0.00 0.00 0.00 45 1016.2
20260901152929 66 86 6.0 9.0 0.00 0.00 0.00 46 1016.4
20260901152424 65 90 7.0 9.0 0.00 0.00 0.00 47 1016.3
20260901151924 65 100 6.0 10.0 0.00 0.00 0.00 47 1016.5
20260901151423 64 103 6.0 8.0 0.00 0.00 0.00 49 1016.3
20260901150923 64 106 6.0 9.0 0.00 0.00 0.00 49 1016.5
20260901150421 64 131 3.0 8.0 0.00 0.00 0.00 50 1016.6
20260901145919 63 89 4.0 7.0 0.00 0.00 0.00 50 1016.7
20260901145419 63 143 4.0 6.0 0.00 0.00 0.00 51 1016.7
20260901144913 62 90 5.0 7.0 0.00 0.00 0.00 53 1016.6
20260901144409 61 112 3.0 6.0 0.00 0.00 0.00 54 1016.6
20260901143905 61 124 5.0 7.0 0.00 0.00 0.00 54 1016.5
20260901143401 60 120 3.0 4.0 0.00 0.00 0.00 55 1016.6
20260901142857 60 141 3.0 4.0 0.00 0.00 0.00 55 1016.5
20260901142355 60 115 2.0 3.0 0.00 0.00 0.00 56 1016.7
20260901141851 59 158 2.0 3.0 0.00 0.00 0.00 58 1016.7
20260901141346 58 165 2.0 4.0 0.00 0.00 0.00 58 1016.6
20260901140845 59 115 3.0 3.0 0.00 0.00 0.00 58 1016.8
20260901140343 58 128 3.0 3.0 0.00 0.00 0.00 59 1016.6
20260901135838 58 98 2.0 3.0 0.00 0.00 0.00 59 1016.6
20260901135333 57 124 2.0 3.0 0.00 0.00 0.00 60 1016.5
20260901134829 57 94 2.0 3.0 0.00 0.00 0.00 60 1016.4
20260901134325 56 120 2.0 3.0 0.00 0.00 0.00 62 1016.4
20260901133819 55 66 2.0 3.0 0.00 0.00 0.00 62 1016.3
20260901133318 54 37 2.0 3.0 0.00 0.00 0.00 64 1016.5
20260901132817 54 50 3.0 3.0 0.00 0.00 0.00 65 1016.3
20260901132312 53 56 4.0 4.0 0.00 0.00 0.00 66 1016.1
20260901131811 53 67 4.0 6.0 0.00 0.00 0.00 66 1016.2
20260901131306 53 54 2.0 4.0 0.00 0.00 0.00 67 1016.2
20260901130801 53 51 4.0 4.0 0.00 0.00 0.00 66 1015.9
20260901130300 53 71 4.0 6.0 0.00 0.00 0.00 66 1016.1
20260901125758 53 75 4.0 6.0 0.00 0.00 0.00 66 1016.2
20260901125253 53 59 4.0 7.0 0.00 0.00 0.00 67 1016.2
20260901124748 53 72 5.0 6.0 0.00 0.00 0.00 66 1016.3
20260901124243 53 76 6.0 7.0 0.00 0.00 0.00 66 1016.2
20260901123742 53 79 4.0 7.0 0.00 0.00 0.00 65 1016.2
20260901123237 53 62 5.0 6.0 0.00 0.00 0.00 64 1016.3
20260901122737 53 70 6.0 6.0 0.00 0.00 0.00 64 1016.4
20260901122231 53 70 4.0 4.0 0.00 0.00 0.00 64 1016.1
20260901121730 54 72 4.0 4.0 0.00 0.00 0.00 63 1016.2
20260901121226 54 81 3.0 3.0 0.00 0.00 0.00 63 1016.3
20260901120725 55 79 3.0 6.0 0.00 0.00 0.00 61 1016.3
20260901120220 54 74 3.0 4.0 0.00 0.00 0.00 62 1016.4
20260901115715 54 75 4.0 4.0 0.00 0.00 0.00 62 1016.3
20260901115212 54 70 3.0 4.0 0.00 0.00 0.00 63 1016.4
20260901114709 55 71 4.0 4.0 0.00 0.00 0.00 62 1016.2
20260901114209 56 97 4.0 7.0 0.00 0.00 0.00 60 1016.3
20260901113707 55 102 4.0 6.0 0.00 0.00 0.00 61 1016.4
20260901113203 55 90 4.0 6.0 0.00 0.00 0.00 61 1016.3
20260901112701 55 80 4.0 4.0 0.00 0.00 0.00 62 1016.3
20260901112156 55 81 3.0 4.0 0.00 0.00 0.00 61 1016.4
20260901111656 55 95 5.0 6.0 0.00 0.00 0.00 61 1016.4
20260901111156 55 81 4.0 4.0 0.00 0.00 0.00 61 1016.5
20260901110656 55 69 4.0 6.0 0.00 0.00 0.00 60 1016.3
20260901110151 55 78 3.0 4.0 0.00 0.00 0.00 62 1016.3
20260901105648 55 74 3.0 4.0 0.00 0.00 0.00 61 1016.4
20260901105147 55 73 2.0 3.0 0.00 0.00 0.00 62 1016.5
20260901104644 55 84 2.0 3.0 0.00 0.00 0.00 60 1016.5
20260901104138 55 75 2.0 3.0 0.00 0.00 0.00 60 1016.6
20260901103638 56 66 2.0 3.0 0.00 0.00 0.00 59 1016.4
20260901103134 56 76 2.0 3.0 0.00 0.00 0.00 59 1016.3
20260901102633 56 76 3.0 4.0 0.00 0.00 0.00 59 1016.4
20260901102127 56 55 4.0 4.0 0.00 0.00 0.00 58 1016.4
20260901101624 56 60 3.0 3.0 0.00 0.00 0.00 58 1016.4
20260901101123 56 60 3.0 4.0 0.00 0.00 0.00 58 1016.5
20260901100623 56 62 3.0 4.0 0.00 0.00 0.00 59 1016.6
20260901100118 55 69 3.0 4.0 0.00 0.00 0.00 60 1016.7
20260901095616 55 72 3.0 3.0 0.00 0.00 0.00 60 1016.6
20260901095114 55 69 4.0 4.0 0.00 0.00 0.00 60 1016.5
20260901094609 55 76 4.0 6.0 0.00 0.00 0.00 60 1016.5
20260901094103 54 71 5.0 6.0 0.00 0.00 0.00 61 1016.6
20260901093558 55 73 4.0 6.0 0.00 0.00 0.00 60 1016.5
20260901093058 55 63 4.0 7.0 0.00 0.00 0.00 61 1016.6
20260901092554 55 53 6.0 7.0 0.00 0.00 0.00 60 1016.5
20260901092049 55 72 4.0 6.0 0.00 0.00 0.00 60 1016.3
20260901091545 55 56 5.0 6.0 0.00 0.00 0.00 60 1016.6
20260901091045 55 50 5.0 7.0 0.00 0.00 0.00 60 1016.5
20260901090544 55 52 4.0 4.0 0.00 0.00 0.00 60 1016.6
20260901090041 55 56 3.0 4.0 0.00 0.00 0.00 60 1016.6
20260901085536 55 50 3.0 4.0 0.00 0.00 0.00 60 1016.6
20260901085032 55 66 3.0 4.0 0.00 0.00 0.00 60 1016.5
20260901084528 55 45 3.0 4.0 0.00 0.00 0.00 59 1016.6
20260901084024 55 58 5.0 6.0 0.00 0.00 0.00 59 1016.7
20260901083524 55 60 4.0 6.0 0.00 0.00 0.00 59 1016.8
20260901083022 55 54 3.0 4.0 0.00 0.00 0.00 60 1016.7
20260901082517 55 51 3.0 4.0 0.00 0.00 0.00 59 1016.7
20260901082013 55 51 4.0 4.0 0.00 0.00 0.00 60 1016.7
20260901081508 55 45 3.0 4.0 0.00 0.00 0.00 59 1016.7
20260901081003 55 60 3.0 4.0 0.00 0.00 0.00 59 1016.7
20260901080502 55 47 1.0 2.0 0.00 0.00 0.00 60 1016.6
20260901080001 56 352 2.0 4.0 0.00 0.00 0.00 57 1016.7
20260901075457 56 52 3.0 4.0 0.00 0.00 0.00 57 1016.8
20260901074951 57 48 3.0 4.0 0.00 0.00 0.00 57 1016.8
20260901074451 57 40 3.0 4.0 0.00 0.00 0.00 55 1016.9
20260901073946 57 56 4.0 4.0 0.00 0.00 0.00 55 1017.1
20260901073443 57 59 4.0 6.0 0.00 0.00 0.00 54 1017.3
20260901072943 58 54 4.0 4.0 0.00 0.00 0.00 54 1017.1
20260901072438 58 62 4.0 4.0 0.00 0.00 0.00 53 1017.1
20260901071933 58 60 4.0 4.0 0.00 0.00 0.00 53 1017.3
20260901071432 58 61 5.0 6.0 0.00 0.00 0.00 53 1017.0
20260901070931 58 52 4.0 6.0 0.00 0.00 0.00 52 1017.0
20260901070427 59 43 5.0 6.0 0.00 0.00 0.00 51 1016.9
20260901065925 58 84 2.0 3.0 0.00 0.00 0.00 52 1017.1
20260901065421 58 58 4.0 6.0 0.00 0.00 0.00 51 1017.0
20260901064916 58 70 2.0 4.0 0.00 0.00 0.00 52 1017.1
20260901064412 58 57 3.0 4.0 0.00 0.00 0.00 52 1017.1
20260901063909 58 57 4.0 4.0 0.00 0.00 0.00 52 1017.1
20260901063406 59 62 3.0 4.0 0.00 0.00 0.00 51 1017.0
20260901062902 59 66 3.0 4.0 0.00 0.00 0.00 50 1017.3
20260901061853 58 29 2.0 3.0 0.00 0.00 0.00 51 1017.3
20260901061348 59 309 1.0 4.0 0.00 0.00 0.00 49 1017.0
20260901060843 59 51 2.0 3.0 0.00 0.00 0.00 48 1017.3
20260901060339 59 61 3.0 4.0 0.00 0.00 0.00 48 1017.4
20260901055838 60 73 3.0 3.0 0.00 0.00 0.00 48 1017.4
20260901055335 60 62 3.0 6.0 0.00 0.00 0.00 48 1017.5
20260901054831 60 54 4.0 4.0 0.00 0.00 0.00 47 1017.4
20260901054328 60 65 3.0 4.0 0.00 0.00 0.00 47 1017.4
20260901053824 61 64 3.0 3.0 0.00 0.00 0.00 46 1017.6
20260901053319 61 54 3.0 3.0 0.00 0.00 0.00 46 1017.5
20260901052814 61 56 2.0 4.0 0.00 0.00 0.00 46 1017.1
20260901052310 61 63 4.0 6.0 0.00 0.00 0.00 46 1017.5
20260901051808 62 66 3.0 3.0 0.00 0.00 0.00 45 1017.5
20260901051304 62 56 3.0 3.0 0.00 0.00 0.00 45 1017.5
20260901050759 62 64 2.0 3.0 0.00 0.00 0.00 45 1017.6
20260901050254 62 72 3.0 3.0 0.00 0.00 0.00 45 1017.5
20260901045750 62 58 2.0 3.0 0.00 0.00 0.00 45 1017.5
20260901045244 62 66 2.0 3.0 0.00 0.00 0.00 45 1017.6
20260901044739 62 61 2.0 3.0 0.00 0.00 0.00 44 1017.5
20260901044236 62 56 3.0 4.0 0.00 0.00 0.00 44 1017.7
20260901043731 62 45 4.0 4.0 0.00 0.00 0.00 44 1017.8
20260901043226 62 82 3.0 3.0 0.00 0.00 0.00 45 1017.7
20260901042726 61 72 2.0 3.0 0.00 0.00 0.00 46 1017.8
20260901042220 62 76 2.0 3.0 0.00 0.00 0.00 44 1017.7
20260901041717 61 55 3.0 3.0 0.00 0.00 0.00 45 1017.9
20260901041216 61 71 3.0 4.0 0.00 0.00 0.00 46 1017.8
20260901040711 61 62 4.0 4.0 0.00 0.00 0.00 45 1017.6
20260901040210 61 77 3.0 4.0 0.00 0.00 0.00 46 1017.8
20260901035708 61 75 4.0 4.0 0.00 0.00 0.00 46 1017.7
20260901035208 63 81 2.0 4.0 0.00 0.00 0.00 45 1017.4
20260901034702 63 83 3.0 6.0 0.00 0.00 0.00 44 1017.4
20260901034157 63 83 4.0 4.0 0.00 0.00 0.00 43 1017.4
20260901033656 64 88 4.0 6.0 0.00 0.00 0.00 43 1017.5
20260901033155 65 53 5.0 7.0 0.00 0.00 0.00 41 1017.3
20260901032654 65 49 4.0 6.0 0.00 0.00 0.00 41 1017.3
20260901032149 65 60 4.0 6.0 0.00 0.00 0.00 41 1017.3
20260901031644 65 51 4.0 6.0 0.00 0.00 0.00 41 1017.3
20260901031140 65 68 4.0 4.0 0.00 0.00 0.00 42 1017.3
20260901030634 66 68 3.0 4.0 0.00 0.00 0.00 42 1017.1
20260901030129 66 64 6.0 8.0 0.00 0.00 0.00 40 1017.3
20260901025623 66 66 5.0 6.0 0.00 0.00 0.00 40 1017.3
20260901025118 67 69 4.0 4.0 0.00 0.00 0.00 39 1017.0
20260901024612 68 75 1.0 4.0 0.00 0.00 0.00 39 1016.9
20260901024111 69 40 3.0 4.0 0.00 0.00 0.00 38 1017.1
20260901023610 69 64 3.0 4.0 0.00 0.00 0.00 37 1016.8
20260901023105 69 34 2.0 4.0 0.00 0.00 0.00 37 1016.7
20260901022600 69 32 3.0 3.0 0.00 0.00 0.00 37 1016.9
20260901022055 69 61 2.0 3.0 0.00 0.00 0.00 37 1017.0
20260901021551 69 353 1.0 2.0 0.00 0.00 0.00 38 1016.9
20260901021046 70 55 3.0 3.0 0.00 0.00 0.00 37 1016.6
20260901020543 70 79 3.0 3.0 0.00 0.00 0.00 36 1016.8
20260901020038 71 41 2.0 3.0 0.00 0.00 0.00 36 1016.9
20260901015533 72 63 2.0 3.0 0.00 0.00 0.00 35 1016.9
20260901015032 72 51 2.0 3.0 0.00 0.00 0.00 35 1016.8
20260901014528 73 41 2.0 3.0 0.00 0.00 0.00 34 1016.7
20260901014024 73 73 2.0 3.0 0.00 0.00 0.00 34 1017.0
20260901013519 73 90 2.0 2.0 0.00 0.00 0.00 35 1017.0
20260901013015 73 79 2.0 2.0 0.00 0.00 0.00 34 1016.9
20260901012514 74 69 2.0 3.0 0.00 0.00 0.00 34 1017.1
20260901012010 75 78 2.0 3.0 0.00 0.00 0.00 33 1017.0
20260901011507 75 80 2.0 2.0 0.00 0.00 0.00 33 1017.0
20260901011004 75 127 3.0 3.0 0.00 0.00 0.00 32 1017.0
20260901010459 75 12 1.0 3.0 0.00 0.00 0.00 32 1016.9
20260901005958 75 92 2.0 6.0 0.00 0.00 0.00 31 1017.3
20260901005453 76 71 3.0 3.0 0.00 0.00 0.00 31 1017.1
20260901004948 76 78 4.0 6.0 0.00 0.00 0.00 31 1017.1
20260901004448 77 227 0.0 1.0 0.00 0.00 0.00 30 1017.1
20260901003942 78 271 1.0 2.0 0.00 0.00 0.00 30 1017.1
20260901003438 77 294 1.0 3.0 0.00 0.00 0.00 29 1017.3
20260901002936 78 277 1.0 3.0 0.00 0.00 0.00 29 1017.4
20260901002436 77 260 1.0 1.0 0.00 0.00 0.00 30 1017.4
20260901001930 78 253 1.0 2.0 0.00 0.00 0.00 29 1017.3
20260901001427 78 304 3.0 4.0 0.00 0.00 0.00 30 1017.3
20260901000927 78 340 2.0 2.0 0.00 0.00 0.00 29 1017.3
20260901000422 78 267 2.0 4.0 0.00 0.00 0.00 29 1017.5
20260831235921 77 283 2.0 2.0 0.00 0.00 0.00 29 1017.5
20260831235417 77 182 2.0 3.0 0.00 0.00 0.00 31 1017.5
20260831234912 78 58 3.0 4.0 0.00 0.00 0.00 30 1017.1
20260831234411 78 254 0.0 3.0 0.00 0.00 0.00 30 1017.5
20260831233907 79 256 0.0 1.0 0.00 0.00 0.00 30 1017.6
20260831233402 77 226 1.0 2.0 0.00 0.00 0.00 29 1017.3